Weather History for Akron, OH

Change the Weather History Date:

Monday, March 25, 2013

  Actual Average (KCAK) Record (KCAK)
Temperature  
Mean Temperature 32 °F 41 °F  
Max Temperature 35 °F 50 °F 81 °F (1945)
Min Temperature 30 °F 31 °F 1 °F (1974)
Degree Days  
Heating Degree Days 32 24  
Month to date heating degree days 714  
Since 1 July heating degree days 5258  
Cooling Degree Days 0 0  
Month to date cooling degree days 0  
Year to date cooling degree days 0  
Moisture  
Dew Point 30 °F    
Average Humidity 89    
Maximum Humidity 93    
Minimum Humidity 64    
Precipitation  
Precipitation 0.36 in 0.10 in 0.74 in (1954)
Month to date precipitation 2.33  
Year to date precipitation 7.25  
Snow  
Snow 0.00 in 0.10 in - ()
Month to date snowfall 7.1  
Since 1 July snowfall 43.6  
Snow Depth -    
Sea Level Pressure  
Sea Level Pressure 29.54 in    
Wind  
Wind Speed 8 mph (NE)    
Max Wind Speed 13 mph    
Max Gust Speed 21 mph    
Visibility 3 miles    
Events Snow    
T = Trace of Precipitation, MM = Missing Value Source: NWS Daily Summary

Daily Weather History Graph

Daily Weather History Graph

Search for Another Location

Airport:

Trip Planner

Search our weather history database for the weather conditions in past years. The results will help you decide how hot, cold, wet, or windy it might be!

Date:

Astronomy

Mar. 25, 2013 Rise Set
Actual Time 7:20 AM EDT 7:43 PM EDT
Civil Twilight 6:52 AM EDT 8:11 PM EDT
Nautical Twilight 6:20 AM EDT 8:43 PM EDT
Astronomical Twilight 5:47 AM EDT 9:16 PM EDT
Moon 6:13 PM EDT (3/25) 6:03 AM EDT (3/25)
Length of Visible Light 13h 18m
Length of Day
12h 23m
Waxing Gibbous, 96% of the Moon is Illuminated
Mar 25
Waxing Gibbous
Mar 27
Full
Apr 3
Last Quarter
Apr 10
New
Apr 18
First Quarter

Hourly Weather History & Observations

Time (EDT) Temp. Windchill Dew Point Humidity Pressure Visibility Wind Dir Wind Speed Gust Speed Precip Events Conditions
12:54 AM 35.1 °F 26.4 °F 24.1 °F 64% 29.49 in 10.0 mi East 12.7 mph 19.6 mph N/A   Overcast
1:12 AM 33.8 °F 26.4 °F 26.6 °F 75% 29.46 in 4.0 mi East 9.2 mph - 0.00 in Snow Light Snow
1:30 AM 33.8 °F 27.0 °F 28.4 °F 81% 29.45 in 2.0 mi East 8.1 mph - 0.00 in Snow Light Snow
1:40 AM 33.8 °F 27.0 °F 28.4 °F 81% 29.45 in 1.5 mi East 8.1 mph - 0.00 in Snow Light Snow
1:54 AM 32.0 °F 24.2 °F 28.9 °F 88% 29.47 in 1.2 mi ENE 9.2 mph - 0.00 in Snow Light Snow
2:02 AM 32.0 °F 23.0 °F 30.2 °F 93% 29.45 in 1.0 mi East 11.5 mph 20.7 mph 0.00 in Snow Light Snow
2:29 AM 32.0 °F 24.2 °F 30.2 °F 93% 29.44 in 1.2 mi East 9.2 mph 18.4 mph 0.00 in Snow Light Snow
2:54 AM 32.0 °F 24.8 °F 30.0 °F 92% 29.46 in 1.8 mi East 8.1 mph 16.1 mph 0.01 in Snow Light Snow
2:57 AM 32.0 °F 24.2 °F 30.2 °F 93% 29.43 in 2.0 mi East 9.2 mph 16.1 mph 0.00 in Snow Light Snow
3:04 AM 32.0 °F 23.6 °F 30.2 °F 93% 29.43 in 1.8 mi East 10.4 mph - 0.00 in Snow Light Snow
3:08 AM 32.0 °F 25.6 °F 30.2 °F 93% 29.43 in 1.0 mi East 6.9 mph 16.1 mph 0.00 in Snow Light Snow
3:16 AM 32.0 °F 26.4 °F 30.2 °F 93% 29.43 in 0.8 mi Variable 5.8 mph 17.3 mph 0.00 in Snow Light Snow
3:30 AM 32.0 °F 24.8 °F 30.2 °F 93% 29.43 in 1.0 mi East 8.1 mph 17.3 mph 0.00 in Snow Light Snow
3:43 AM 32.0 °F 24.8 °F 30.2 °F 93% 29.42 in 0.8 mi ENE 8.1 mph - 0.01 in Snow Light Snow
3:52 AM 32.0 °F 24.8 °F 30.2 °F 93% 29.42 in 0.8 mi East 8.1 mph - 0.01 in Snow Light Snow
3:54 AM 32.0 °F 24.2 °F 30.0 °F 92% 29.44 in 0.8 mi East 9.2 mph - 0.01 in Snow Light Snow
4:54 AM 32.0 °F 23.6 °F 30.0 °F 92% 29.43 in 1.0 mi East 10.4 mph - 0.01 in Snow Light Snow
5:14 AM 32.0 °F 24.8 °F 28.4 °F 87% 29.41 in 1.2 mi East 8.1 mph - 0.00 in Snow Light Snow
5:24 AM 32.0 °F 24.8 °F 28.4 °F 87% 29.41 in 1.2 mi East 8.1 mph 16.1 mph 0.01 in Snow Light Snow
5:54 AM 32.0 °F 24.2 °F 28.9 °F 88% 29.43 in 1.5 mi East 9.2 mph - 0.01 in Snow Light Snow
6:02 AM 32.0 °F 24.8 °F 28.4 °F 87% 29.40 in 1.2 mi East 8.1 mph - 0.00 in Snow Light Snow
6:32 AM 30.2 °F 22.6 °F 28.4 °F 93% 29.41 in 1.0 mi East 8.1 mph - 0.01 in Snow Light Snow
6:47 AM 30.2 °F 21.9 °F 28.4 °F 93% 29.41 in 1.0 mi ENE 9.2 mph - 0.01 in Snow Light Snow
6:54 AM 30.9 °F 22.8 °F 28.9 °F 92% 29.43 in 1.2 mi ENE 9.2 mph - 0.01 in Snow Light Snow
7:15 AM 30.2 °F 22.6 °F 28.4 °F 93% 29.41 in 1.8 mi ENE 8.1 mph - 0.00 in Snow Light Snow
7:23 AM 30.2 °F 21.9 °F 28.4 °F 93% 29.41 in 2.5 mi ENE 9.2 mph - 0.00 in Snow Light Snow
7:44 AM 32.0 °F 24.2 °F 28.4 °F 87% 29.42 in 3.0 mi East 9.2 mph - 0.01 in Snow Light Snow
7:54 AM 32.0 °F 24.8 °F 28.9 °F 88% 29.45 in 5.0 mi ENE 8.1 mph - 0.01 in   Overcast
8:23 AM 32.0 °F 26.4 °F 30.2 °F 93% 29.42 in 1.8 mi ENE 5.8 mph - 0.01 in Snow Light Snow
8:49 AM 32.0 °F 25.6 °F 30.2 °F 93% 29.43 in 1.2 mi ENE 6.9 mph - 0.02 in Snow Light Snow
8:54 AM 32.0 °F 25.6 °F 30.0 °F 92% 29.46 in 1.2 mi ENE 6.9 mph - 0.02 in Snow Light Snow
9:54 AM 32.0 °F 26.4 °F 30.0 °F 92% 29.46 in 1.5 mi ENE 5.8 mph - 0.03 in Snow Light Snow
10:36 AM 33.8 °F 27.7 °F 30.2 °F 87% 29.44 in 2.0 mi ENE 6.9 mph - 0.03 in Snow Light Snow
10:54 AM 33.1 °F 26.1 °F 30.0 °F 89% 29.47 in 2.5 mi ENE 8.1 mph - 0.04 in   Overcast
11:05 AM 33.8 °F 27.7 °F 30.2 °F 87% 29.45 in 3.0 mi East 6.9 mph - 0.01 in   Overcast
11:54 AM 33.1 °F 26.1 °F 30.0 °F 89% 29.49 in 4.0 mi ENE 8.1 mph - 0.06 in   Overcast
12:07 PM 33.8 °F 29.6 °F 30.2 °F 87% 29.47 in 1.8 mi ENE 4.6 mph - 0.02 in Snow Light Snow
12:14 PM 33.8 °F 27.7 °F 30.2 °F 87% 29.47 in 1.5 mi NE 6.9 mph - 0.03 in Snow Light Snow
12:48 PM 33.8 °F 28.6 °F 30.2 °F 87% 29.48 in 3.0 mi ENE 5.8 mph - 0.05 in Snow Light Snow
12:54 PM 34.0 °F 29.8 °F 30.9 °F 89% 29.50 in 4.0 mi ENE 4.6 mph - 0.05 in   Overcast
1:08 PM 35.6 °F 31.7 °F 30.2 °F 81% 29.49 in 1.8 mi NE 4.6 mph - 0.00 in Snow Light Snow
1:43 PM 35.6 °F 30.7 °F 32.0 °F 87% 29.50 in 1.0 mi NE 5.8 mph - 0.01 in Snow Light Snow
1:54 PM 34.0 °F 29.8 °F 32.0 °F 92% 29.52 in 1.0 mi NE 4.6 mph - 0.01 in Snow Light Snow
2:33 PM 35.6 °F 29.9 °F 32.0 °F 87% 29.51 in 1.5 mi NNE 6.9 mph - 0.02 in Snow Light Snow
2:42 PM 33.8 °F 27.0 °F 30.2 °F 87% 29.51 in 1.5 mi NNE 8.1 mph - 0.02 in Snow Light Snow
2:54 PM 35.1 °F 31.0 °F 32.0 °F 89% 29.53 in 1.8 mi North 4.6 mph - 0.02 in Snow Light Snow
3:00 PM 35.6 °F 30.7 °F 32.0 °F 87% 29.51 in 2.0 mi North 5.8 mph - 0.00 in Snow Light Snow
3:07 PM 33.8 °F 27.7 °F 32.0 °F 93% 29.52 in 1.5 mi North 6.9 mph - 0.01 in Snow Light Snow
3:21 PM 35.6 °F 30.7 °F 32.0 °F 87% 29.52 in 2.5 mi North 5.8 mph - 0.01 in Snow Light Snow
3:28 PM 35.6 °F 29.9 °F 30.2 °F 81% 29.53 in 3.0 mi North 6.9 mph - 0.01 in Snow Light Snow
3:40 PM 33.8 °F 28.6 °F 32.0 °F 93% 29.53 in 2.0 mi North 5.8 mph - 0.02 in Snow Light Snow
3:54 PM 35.1 °F 30.1 °F 32.0 °F 89% 29.56 in 3.0 mi North 5.8 mph - 0.02 in Snow Light Snow
4:04 PM 35.6 °F 31.7 °F 32.0 °F 87% 29.54 in 4.0 mi North 4.6 mph - 0.00 in Snow Light Snow
4:47 PM 33.8 °F 27.0 °F 30.2 °F 87% 29.56 in 1.8 mi NE 8.1 mph - 0.01 in Snow Light Snow
4:54 PM 34.0 °F 28.0 °F 32.0 °F 92% 29.59 in 1.8 mi NNE 6.9 mph - 0.01 in Snow Light Snow
4:56 PM 33.8 °F 27.7 °F 32.0 °F 93% 29.57 in 2.0 mi NNE 6.9 mph - 0.01 in Snow Light Snow
5:10 PM 35.6 °F 30.7 °F 32.0 °F 87% 29.57 in 3.0 mi NNE 5.8 mph - 0.01 in Snow Light Snow
5:25 PM 33.8 °F 27.0 °F 32.0 °F 93% 29.58 in 2.0 mi NNE 8.1 mph - 0.01 in Snow Light Snow
5:31 PM 33.8 °F 27.7 °F 32.0 °F 93% 29.58 in 1.8 mi NNE 6.9 mph - 0.02 in Snow Light Snow
5:38 PM 33.8 °F 28.6 °F 32.0 °F 93% 29.59 in 3.0 mi North 5.8 mph - 0.02 in Snow Light Snow
5:54 PM 34.0 °F 28.8 °F 32.0 °F 92% 29.62 in 4.0 mi North 5.8 mph - 0.02 in Snow Light Snow
6:54 PM 34.0 °F 26.0 °F 32.0 °F 92% 29.66 in 5.0 mi North 10.4 mph - 0.01 in Snow Light Snow
7:52 PM 33.8 °F 26.4 °F 30.2 °F 87% 29.68 in 5.0 mi North 9.2 mph - 0.00 in   Overcast
7:54 PM 33.1 °F 26.9 °F 30.9 °F 92% 29.70 in 5.0 mi NNE 6.9 mph - 0.00 in Snow Light Snow
8:15 PM 33.8 °F 27.0 °F 30.2 °F 87% 29.69 in 4.0 mi North 8.1 mph - 0.00 in Snow Light Snow
8:54 PM 33.1 °F 25.5 °F 30.0 °F 89% 29.75 in 4.0 mi North 9.2 mph - 0.00 in Snow Light Snow
9:05 PM 33.8 °F 27.0 °F 30.2 °F 87% 29.72 in 2.5 mi North 8.1 mph - 0.00 in Snow Light Snow
9:28 PM 33.8 °F 27.7 °F 30.2 °F 87% 29.74 in 3.0 mi North 6.9 mph - 0.00 in Snow Light Snow
9:38 PM 33.8 °F 26.4 °F 30.2 °F 87% 29.74 in 5.0 mi North 9.2 mph - 0.00 in Snow Light Snow
9:54 PM 33.1 °F 24.9 °F 30.0 °F 89% 29.78 in 7.0 mi North 10.4 mph - 0.00 in   Overcast
10:01 PM 33.8 °F 25.8 °F 30.2 °F 87% 29.75 in 8.0 mi North 10.4 mph - N/A   Overcast
10:14 PM 33.8 °F 26.4 °F 30.2 °F 87% 29.76 in 6.0 mi North 9.2 mph - 0.00 in Snow Light Snow
10:24 PM 33.8 °F 26.4 °F 30.2 °F 87% 29.76 in 4.0 mi North 9.2 mph - 0.00 in Snow Light Snow
10:49 PM 32.0 °F 25.6 °F 30.2 °F 93% 29.77 in 2.5 mi North 6.9 mph - 0.00 in Snow Light Snow
10:54 PM 32.0 °F 24.8 °F 30.0 °F 92% 29.80 in 2.0 mi North 8.1 mph - 0.00 in Snow Light Snow
11:08 PM 32.0 °F 24.8 °F 30.2 °F 93% 29.78 in 2.0 mi NNW 8.1 mph - 0.01 in Snow Light Snow
11:20 PM 32.0 °F 25.6 °F 30.2 °F 93% 29.78 in 4.0 mi North 6.9 mph - 0.01 in Snow Light Snow
11:36 PM 32.0 °F 24.2 °F 30.2 °F 93% 29.79 in 4.0 mi NNW 9.2 mph - 0.01 in Snow Light Snow
11:49 PM 32.0 °F 26.4 °F 30.2 °F 93% 29.79 in 5.0 mi North 5.8 mph - 0.01 in   Overcast
11:54 PM 32.0 °F 24.2 °F 30.0 °F 92% 29.82 in 5.0 mi North 9.2 mph - 0.01 in   Overcast